Location: Unspecified
(0.0000°N, 0.0000°E)
Time: 07:27:45
(UTC+00:00)

A-11 Canister half - Visible Passes

Search period start: 01 June 2016 00:00
Search period end: 11 June 2016 00:00
Orbit: 1526 x 1683 km, 47.3° (Epoch: 31 May)

Date Brightness Start Highest point End Pass type
(mag) Time Alt. Az. Time Alt. Az. Time Alt. Az.
01 Jun 11.3 01:49:12 10° NNE 01:53:32 13° NE 01:57:54 10° ENE visible
01 Jun 9.2 03:49:03 10° NNW 03:58:57 74° NE 04:09:05 10° SE visible
02 Jun 11.3 01:28:25 10° NNE 01:31:52 12° NE 01:35:21 10° ENE visible
02 Jun 9.3 03:27:31 10° NNW 03:37:21 69° NE 03:47:26 10° SE visible
03 Jun 11.3 01:07:59 10° NNE 01:10:12 11° NE 01:12:26 10° ENE visible
03 Jun 9.3 03:06:00 10° NNW 03:15:46 65° NE 03:25:46 10° SE visible
03 Jun 9.8 05:12:44 10° WNW 05:20:51 28° SW 05:29:09 10° S visible
04 Jun 9.4 02:44:30 10° NNW 02:54:10 61° NE 03:04:05 10° SE visible
04 Jun 9.7 04:50:53 10° WNW 04:59:14 30° SW 05:07:46 10° S visible
05 Jun 9.7 02:34:48 48° E 02:34:48 48° E 02:42:24 10° SE visible
05 Jun 9.6 04:33:25 24° W 04:37:36 32° SW 04:46:20 10° S visible
06 Jun 10.6 02:17:24 23° ESE 02:17:24 23° ESE 02:20:41 10° SE visible
06 Jun 9.5 04:15:54 35° SW 04:15:59 35° SW 04:24:55 10° SSE visible
07 Jun 11.2 01:59:05 10° ESE 01:59:05 10° ESE 01:38:08 - NNW visible
07 Jun 9.8 03:57:32 31° SSW 03:57:32 31° SSW 04:03:28 10° SSE visible
08 Jun11.501:40:15SE01:40:15SE01:16:35NNWvisible
08 Jun 10.3 03:38:40 22° S 03:38:40 22° S 03:42:01 10° SSE visible
09 Jun 10.8 03:19:28 14° SSE 03:19:28 14° SSE 03:20:32 10° SSE visible
